Find Starlink 31772

NORAD ID: 59430 Int'l Des: 2024-065 Owner: SPXS Country: US Constellation: starlink operational
LEOCIRCULAR

Live Position

Loading 3D Globe...

About Starlink 31772

Description loading...

Upcoming Passes

Passes for default location (London). Set your location on the main map for personalized predictions.

Altitude History

Loading altitude history...

Two-Line Element Set

1 59430U 24065K 26126.95843198 .00000877 00000-0 41723-4 0 9995
2 59430 53.1612 10.8028 0001115 71.4047 288.7075 15.30204974117855
Epoch: May 6, 2026 • Age: 5 hours

Current Status

Altitude 475.8 km
Velocity 7.63 km/s
Sub-Earth Point 26.91°N, 109.26°E
Launch Date Apr 7, 2024
Age 2 years
Type internet

Technical Details

Classification Payload
Mass 730.00 kg
Dry Mass 700.00 kg
Total Mass 730.00 kg
Length 0.30 m
Diameter 4.10 m
Span 29.00 m
Shape Box + pan
Manufacturer SPXS
Bus Type Starlink V2M
Phase Status In Orbit
Owner/State SPXS/US

Most Searched